Tracking 25378 objects as of 22-Jan-2022
HD Live streaming from Space Station
objects crossing your sky now

OPS 9321 (IDSCS 8)

Track OPS 9321 (IDSCS 8) now!
OPS 9321 (IDSCS 8) is classified as:


NORAD ID: 2645
Int'l Code: 1967-003A
Perigee: 33,534.8 km
Apogee: 33,823.2 km
Inclination: 5.4 °
Period: 1,329.4 minutes
Semi major axis: 40049 km
RCS: 0.3981 m2 (medium)
Launch date: January 18, 1967
Source: United States (US)
Launch site: AIR FORCE EASTERN TEST RANGE (AFETR)
aabbcc
Your satellite tracking list
Your tracking list is empty




NASA's NSSDC Master Catalog

Two Line Element Set (TLE):
1 02645U 67003A   22021.55221162 -.00000117  00000-0  00000-0 0  9994
2 02645   5.3572  56.1913 0035996  72.8980 266.1475  1.08317614217037
Source of the keplerian elements: AFSPC